SGO200 PAVD-CYDA

Flight info

Callsign SGO200
Flight time 2h 9m
Altitude 6000
Route GKN C20 ORT
Aircraft DC3/L-SDE2E3FHIRW/S

Departure

Time 2026-04-15 15:30
Airport Valdez Pioneer Field (PAVD)

Arrival

Time 2026-04-15 17:40
Airport Dawson City Airport (CYDA)
Time Latitude Longitude Altitude Speed Heading
2026-04-15 15:08 61.13150 -146.24829 95 ft 0 kts 174°
2026-04-15 15:24 61.13147 -146.24829 97 ft 1 kts 159°
2026-04-15 15:24 61.13143 -146.24825 96 ft 1 kts 137°
2026-04-15 15:24 61.13141 -146.24784 97 ft 6 kts 69°
2026-04-15 15:24 61.13176 -146.24640 99 ft 16 kts 63°
2026-04-15 15:25 61.13228 -146.24381 104 ft 23 kts 73°
2026-04-15 15:25 61.13266 -146.24012 111 ft 29 kts 78°
2026-04-15 15:25 61.13306 -146.23571 119 ft 33 kts 79°
2026-04-15 15:25 61.13351 -146.23104 125 ft 31 kts 77°
2026-04-15 15:26 61.13385 -146.22737 135 ft 21 kts 76°
2026-04-15 15:26 61.13449 -146.22652 137 ft 0 kts 352°
2026-04-15 15:27 61.13478 -146.22663 137 ft 12 kts 346°
2026-04-15 15:27 61.13548 -146.22775 137 ft 14 kts 268°
2026-04-15 15:27 61.13547 -146.22811 136 ft 0 kts 263°
2026-04-15 15:28 61.13513 -146.23180 128 ft 54 kts 262°
2026-04-15 15:29 61.13442 -146.24221 113 ft 87 kts 258°
2026-04-15 15:29 61.13338 -146.25459 258 ft 91 kts 260°
2026-04-15 15:29 61.13199 -146.26801 429 ft 98 kts 258°
2026-04-15 15:29 61.13093 -146.28219 628 ft 101 kts 262°
2026-04-15 15:30 61.12978 -146.29748 671 ft 117 kts 262°
2026-04-15 15:30 61.12841 -146.31474 781 ft 123 kts 260°
2026-04-15 15:30 61.12695 -146.33234 921 ft 126 kts 264°
2026-04-15 15:30 61.12613 -146.35028 1117 ft 125 kts 264°
2026-04-15 15:31 61.12391 -146.36742 1279 ft 126 kts 233°
2026-04-15 15:31 61.11612 -146.37387 1406 ft 127 kts 168°
2026-04-15 15:31 61.10965 -146.36256 1567 ft 124 kts 118°
2026-04-15 15:31 61.10581 -146.34688 1740 ft 121 kts 114°
2026-04-15 15:32 61.10220 -146.33133 1898 ft 119 kts 114°
2026-04-15 15:32 61.09863 -146.31591 2058 ft 119 kts 114°
2026-04-15 15:32 61.09512 -146.30052 2210 ft 118 kts 114°
2026-04-15 15:32 61.09164 -146.28520 2363 ft 118 kts 114°
2026-04-15 15:33 61.08829 -146.26982 2524 ft 117 kts 110°
2026-04-15 15:33 61.08572 -146.25395 2702 ft 116 kts 104°
2026-04-15 15:33 61.08391 -146.23774 2901 ft 115 kts 102°
2026-04-15 15:33 61.08209 -146.22165 3115 ft 114 kts 102°
2026-04-15 15:34 61.08035 -146.20565 3334 ft 114 kts 102°
2026-04-15 15:34 61.07858 -146.18987 3556 ft 112 kts 103°
2026-04-15 15:34 61.07690 -146.17422 3781 ft 111 kts 103°
2026-04-15 15:34 61.07525 -146.15854 4012 ft 112 kts 103°
2026-04-15 15:35 61.07367 -146.14281 4207 ft 112 kts 103°
2026-04-15 15:35 61.07184 -146.12723 4407 ft 111 kts 107°
2026-04-15 15:35 61.06989 -146.11179 4596 ft 110 kts 106°
2026-04-15 15:35 61.06808 -146.09646 4791 ft 109 kts 107°
2026-04-15 15:36 61.06624 -146.08139 4967 ft 108 kts 106°
2026-04-15 15:36 61.06449 -146.06628 5157 ft 108 kts 106°
2026-04-15 15:36 61.06273 -146.05114 5347 ft 109 kts 106°
2026-04-15 15:36 61.06101 -146.03600 5545 ft 108 kts 106°
2026-04-15 15:37 61.05929 -146.02074 5742 ft 110 kts 106°
2026-04-15 15:37 61.05756 -146.00535 5937 ft 110 kts 106°
2026-04-15 15:37 61.05583 -145.98993 6141 ft 110 kts 106°
2026-04-15 15:37 61.05420 -145.97479 6335 ft 109 kts 106°
2026-04-15 15:38 61.05260 -145.95952 6529 ft 109 kts 106°
2026-04-15 15:38 61.05092 -145.94390 6714 ft 110 kts 106°
2026-04-15 15:38 61.04929 -145.92855 6899 ft 110 kts 106°
2026-04-15 15:38 61.04769 -145.91347 7074 ft 108 kts 106°
2026-04-15 15:39 61.04654 -145.89806 7241 ft 112 kts 89°
2026-04-15 15:39 61.04986 -145.88322 7401 ft 115 kts 60°
2026-04-15 15:39 61.05357 -145.86825 7471 ft 123 kts 66°
2026-04-15 15:39 61.05749 -145.85176 7494 ft 132 kts 65°
2026-04-15 15:40 61.06027 -145.84000 7494 ft 137 kts 66°
2026-04-15 15:40 61.06457 -145.82180 7500 ft 144 kts 65°
2026-04-15 15:40 61.07041 -145.79693 7498 ft 147 kts 65°
2026-04-15 15:40 61.07348 -145.78399 7498 ft 150 kts 65°
2026-04-15 15:41 61.07809 -145.76444 7501 ft 154 kts 65°
2026-04-15 15:41 61.08282 -145.74433 7498 ft 157 kts 65°
2026-04-15 15:41 61.08767 -145.72389 7495 ft 159 kts 65°
2026-04-15 15:41 61.09256 -145.70312 7493 ft 162 kts 65°
2026-04-15 15:42 61.09749 -145.68234 7488 ft 160 kts 65°
2026-04-15 15:42 61.10237 -145.66167 7485 ft 160 kts 65°
2026-04-15 15:42 61.10722 -145.64109 7479 ft 159 kts 65°
2026-04-15 15:42 61.11198 -145.62078 7476 ft 159 kts 65°
2026-04-15 15:43 61.11682 -145.60014 7473 ft 160 kts 65°
2026-04-15 15:43 61.12170 -145.57933 7471 ft 161 kts 65°
2026-04-15 15:43 61.12663 -145.55826 7471 ft 164 kts 65°
2026-04-15 15:43 61.13163 -145.53697 7472 ft 165 kts 65°
2026-04-15 15:44 61.13667 -145.51560 7472 ft 165 kts 65°
2026-04-15 15:44 61.14167 -145.49442 7466 ft 163 kts 65°
2026-04-15 15:44 61.14664 -145.47331 7470 ft 163 kts 65°
2026-04-15 15:44 61.15155 -145.45225 7467 ft 162 kts 66°
2026-04-15 15:45 61.15647 -145.43118 7481 ft 162 kts 65°
2026-04-15 15:45 61.16147 -145.41014 7474 ft 162 kts 65°
2026-04-15 15:45 61.16644 -145.38914 7465 ft 163 kts 65°
2026-04-15 15:45 61.17151 -145.36799 7465 ft 164 kts 65°
2026-04-15 15:46 61.17647 -145.34685 7467 ft 161 kts 65°
2026-04-15 15:46 61.18141 -145.32618 7458 ft 156 kts 65°
2026-04-15 15:46 61.18621 -145.30572 7459 ft 159 kts 66°
2026-04-15 15:46 61.19105 -145.28492 7460 ft 162 kts 65°
2026-04-15 15:47 61.19596 -145.26362 7453 ft 164 kts 66°
2026-04-15 15:47 61.20182 -145.24332 7447 ft 166 kts 46°
2026-04-15 15:47 61.21188 -145.23339 7462 ft 160 kts
2026-04-15 15:47 61.22258 -145.22733 7446 ft 164 kts 30°
2026-04-15 15:48 61.23222 -145.21474 7464 ft 163 kts 28°
2026-04-15 15:48 61.24293 -145.20863 7433 ft 160 kts 351°
2026-04-15 15:48 61.25264 -145.21828 7461 ft 154 kts 322°
2026-04-15 15:48 61.26169 -145.23041 7464 ft 156 kts 324°
2026-04-15 15:49 61.27094 -145.24233 7471 ft 157 kts 325°
2026-04-15 15:49 61.28027 -145.25437 7493 ft 157 kts 324°
2026-04-15 15:49 61.28941 -145.26613 7573 ft 153 kts 324°
2026-04-15 15:49 61.29838 -145.27758 7634 ft 151 kts 325°
2026-04-15 15:50 61.30760 -145.28764 7671 ft 152 kts 341°
2026-04-15 15:50 61.31818 -145.28876 7723 ft 153 kts 359°
2026-04-15 15:50 61.32877 -145.28829 7790 ft 152 kts 358°
2026-04-15 15:50 61.33921 -145.28790 7902 ft 148 kts 358°
2026-04-15 15:51 61.34938 -145.28694 7989 ft 146 kts
2026-04-15 15:51 61.35905 -145.28172 8091 ft 145 kts 13°
2026-04-15 15:51 61.36879 -145.27603 8206 ft 143 kts 13°
2026-04-15 15:51 61.37833 -145.27088 8291 ft 143 kts 12°
2026-04-15 15:52 61.38793 -145.26522 8397 ft 141 kts 13°
2026-04-15 15:52 61.39730 -145.25966 8492 ft 140 kts 13°
2026-04-15 15:52 61.40674 -145.25406 8486 ft 146 kts 13°
2026-04-15 15:52 61.41675 -145.24824 8501 ft 151 kts 13°
2026-04-15 15:53 61.42696 -145.24230 8508 ft 154 kts 13°
2026-04-15 15:53 61.43736 -145.23627 8514 ft 155 kts 13°
2026-04-15 15:53 61.44781 -145.23020 8513 ft 156 kts 13°
2026-04-15 15:53 61.45826 -145.22418 8516 ft 155 kts 13°
2026-04-15 15:54 61.46872 -145.21822 8511 ft 156 kts 13°
2026-04-15 15:54 61.47924 -145.21262 8508 ft 156 kts 11°
2026-04-15 15:54 61.48981 -145.20749 8510 ft 156 kts 11°
2026-04-15 15:54 61.50037 -145.20233 8508 ft 156 kts 11°
2026-04-15 15:55 61.51098 -145.19718 8510 ft 157 kts 11°
2026-04-15 15:55 61.52166 -145.19200 8514 ft 158 kts 11°
2026-04-15 15:55 61.53250 -145.18680 8511 ft 162 kts 11°
2026-04-15 15:55 61.54362 -145.18156 8513 ft 165 kts 11°
2026-04-15 15:56 61.55496 -145.17625 8511 ft 168 kts 11°
2026-04-15 15:56 61.56640 -145.17095 8510 ft 169 kts 11°
2026-04-15 15:56 61.57793 -145.16558 8512 ft 170 kts 11°
2026-04-15 15:56 61.58950 -145.16021 8512 ft 170 kts 11°
2026-04-15 15:57 61.60109 -145.15489 8506 ft 171 kts 10°
2026-04-15 15:57 61.61270 -145.14953 8512 ft 171 kts 11°
2026-04-15 15:57 61.62433 -145.14421 8508 ft 171 kts 11°
2026-04-15 15:57 61.63597 -145.13916 8509 ft 171 kts
2026-04-15 15:58 61.64776 -145.13559 8501 ft 171 kts
2026-04-15 15:58 61.65956 -145.13231 8500 ft 172 kts
2026-04-15 15:58 61.67141 -145.12905 8507 ft 171 kts
2026-04-15 15:58 61.68325 -145.12577 8509 ft 172 kts
2026-04-15 15:59 61.69514 -145.12253 8498 ft 172 kts
2026-04-15 15:59 61.70701 -145.11928 8499 ft 172 kts
2026-04-15 15:59 61.71888 -145.11606 8498 ft 172 kts
2026-04-15 15:59 61.73076 -145.11290 8491 ft 172 kts
2026-04-15 16:00 61.74263 -145.10976 8495 ft 172 kts
2026-04-15 16:00 61.75448 -145.10672 8491 ft 171 kts
2026-04-15 16:00 61.76632 -145.10368 8495 ft 171 kts
2026-04-15 16:00 61.77815 -145.10066 8495 ft 171 kts
2026-04-15 16:01 61.79001 -145.09765 8492 ft 172 kts
2026-04-15 16:01 61.80190 -145.09466 8496 ft 172 kts
2026-04-15 16:01 61.81380 -145.09175 8495 ft 172 kts
2026-04-15 16:01 61.82570 -145.08883 8489 ft 173 kts
2026-04-15 16:02 61.83765 -145.08587 8494 ft 173 kts
2026-04-15 16:02 61.84964 -145.08299 8498 ft 173 kts
2026-04-15 16:02 61.86161 -145.08057 8490 ft 173 kts
2026-04-15 16:02 61.87361 -145.08077 8484 ft 173 kts 355°
2026-04-15 16:03 61.88549 -145.08402 8481 ft 172 kts 345°
2026-04-15 16:03 61.89676 -145.09191 8481 ft 170 kts 335°
2026-04-15 16:03 61.90749 -145.10240 8473 ft 170 kts 332°
2026-04-15 16:03 61.91816 -145.11324 8473 ft 170 kts 332°
2026-04-15 16:04 61.92879 -145.12405 8478 ft 170 kts 332°
2026-04-15 16:04 61.93943 -145.13493 8473 ft 169 kts 332°
2026-04-15 16:04 61.94989 -145.14566 8474 ft 169 kts 331°
2026-04-15 16:04 61.96049 -145.15656 8460 ft 169 kts 331°
2026-04-15 16:05 61.97105 -145.16747 8457 ft 169 kts 331°
2026-04-15 16:05 61.98161 -145.17837 8464 ft 169 kts 331°
2026-04-15 16:05 61.99215 -145.18931 8455 ft 169 kts 331°
2026-04-15 16:05 62.00269 -145.20029 8461 ft 168 kts 331°
2026-04-15 16:06 62.01309 -145.21118 8510 ft 166 kts 331°
2026-04-15 16:06 62.02340 -145.22201 8560 ft 164 kts 330°
2026-04-15 16:06 62.03360 -145.23274 8595 ft 163 kts 330°
2026-04-15 16:06 62.04377 -145.24336 8640 ft 163 kts 331°
2026-04-15 16:07 62.05388 -145.25387 8695 ft 160 kts 331°
2026-04-15 16:07 62.06383 -145.26429 8764 ft 159 kts 330°
2026-04-15 16:07 62.08354 -145.28502 8883 ft 157 kts 330°
2026-04-15 16:08 62.09326 -145.29528 8944 ft 155 kts 330°
2026-04-15 16:08 62.10294 -145.30550 9008 ft 155 kts 330°
2026-04-15 16:08 62.11258 -145.31572 9066 ft 155 kts 330°
2026-04-15 16:08 62.12219 -145.32591 9138 ft 154 kts 330°
2026-04-15 16:09 62.13175 -145.33607 9206 ft 153 kts 330°
2026-04-15 16:09 62.14127 -145.34621 9273 ft 153 kts 330°
2026-04-15 16:09 62.15076 -145.35635 9341 ft 152 kts 330°
2026-04-15 16:09 62.16018 -145.36644 9409 ft 151 kts 330°
2026-04-15 16:10 62.16960 -145.37653 9475 ft 151 kts 329°
2026-04-15 16:10 62.17907 -145.38669 9477 ft 154 kts 330°
2026-04-15 16:10 62.18875 -145.39715 9482 ft 157 kts 329°
2026-04-15 16:10 62.19852 -145.40772 9485 ft 158 kts 330°
2026-04-15 16:11 62.20833 -145.41834 9495 ft 158 kts 329°
2026-04-15 16:11 62.21814 -145.42905 9491 ft 159 kts 329°
2026-04-15 16:11 62.22786 -145.43968 9497 ft 159 kts 329°
2026-04-15 16:11 62.23780 -145.45055 9494 ft 161 kts 329°
2026-04-15 16:12 62.24776 -145.46148 9500 ft 160 kts 329°
2026-04-15 16:12 62.25785 -145.47261 9497 ft 162 kts 329°
2026-04-15 16:12 62.26803 -145.48213 9483 ft 165 kts 345°
2026-04-15 16:12 62.27914 -145.47844 9478 ft 171 kts 27°
2026-04-15 16:13 62.28685 -145.45902 9494 ft 170 kts 63°
2026-04-15 16:13 62.29181 -145.43598 9508 ft 170 kts 63°
2026-04-15 16:13 62.29723 -145.41344 9508 ft 170 kts 62°
2026-04-15 16:13 62.30273 -145.39085 9504 ft 171 kts 62°
2026-04-15 16:14 62.30824 -145.36832 9506 ft 170 kts 62°
2026-04-15 16:14 62.31379 -145.34577 9515 ft 171 kts 62°
2026-04-15 16:14 62.31933 -145.32321 9514 ft 171 kts 62°
2026-04-15 16:14 62.32489 -145.30067 9510 ft 171 kts 62°
2026-04-15 16:15 62.33045 -145.27814 9516 ft 171 kts 62°
2026-04-15 16:15 62.33603 -145.25560 9519 ft 171 kts 62°
2026-04-15 16:15 62.34164 -145.23306 9525 ft 171 kts 62°
2026-04-15 16:15 62.34725 -145.21052 9527 ft 171 kts 61°
2026-04-15 16:16 62.35287 -145.18806 9523 ft 171 kts 61°
2026-04-15 16:16 62.35849 -145.16557 9525 ft 170 kts 61°
2026-04-15 16:16 62.36412 -145.14315 9531 ft 170 kts 61°
2026-04-15 16:16 62.36979 -145.12074 9527 ft 171 kts 61°
2026-04-15 16:17 62.37545 -145.09826 9534 ft 171 kts 61°
2026-04-15 16:17 62.38113 -145.07582 9538 ft 171 kts 61°
2026-04-15 16:17 62.38680 -145.05339 9536 ft 171 kts 61°
2026-04-15 16:17 62.39251 -145.03097 9542 ft 170 kts 61°
2026-04-15 16:18 62.39822 -145.00858 9542 ft 170 kts 61°
2026-04-15 16:18 62.40393 -144.98622 9545 ft 170 kts 60°
2026-04-15 16:18 62.40966 -144.96385 9546 ft 170 kts 60°
2026-04-15 16:18 62.41539 -144.94146 9550 ft 170 kts 60°
2026-04-15 16:19 62.42113 -144.91909 9547 ft 171 kts 60°
2026-04-15 16:19 62.42690 -144.89669 9550 ft 171 kts 60°
2026-04-15 16:19 62.43266 -144.87431 9554 ft 170 kts 60°
2026-04-15 16:19 62.43845 -144.85196 9547 ft 171 kts 60°
2026-04-15 16:20 62.44423 -144.82962 9553 ft 170 kts 60°
2026-04-15 16:20 62.45002 -144.80726 9552 ft 171 kts 60°
2026-04-15 16:20 62.45584 -144.78497 9553 ft 170 kts 60°
2026-04-15 16:20 62.46171 -144.76265 9554 ft 171 kts 60°
2026-04-15 16:21 62.46758 -144.74039 9553 ft 171 kts 60°
2026-04-15 16:21 62.47347 -144.71810 9554 ft 171 kts 60°
2026-04-15 16:21 62.47929 -144.69611 9550 ft 171 kts 60°
2026-04-15 16:21 62.48519 -144.67380 9552 ft 171 kts 60°
2026-04-15 16:22 62.49107 -144.65146 9557 ft 171 kts 60°
2026-04-15 16:22 62.49699 -144.62920 9555 ft 171 kts 60°
2026-04-15 16:22 62.50293 -144.60693 9550 ft 171 kts 59°
2026-04-15 16:22 62.50887 -144.58464 9552 ft 171 kts 59°
2026-04-15 16:23 62.51483 -144.56243 9559 ft 171 kts 59°
2026-04-15 16:23 62.52123 -144.54083 9556 ft 170 kts 54°
2026-04-15 16:23 62.52813 -144.51996 9554 ft 170 kts 54°
2026-04-15 16:23 62.53503 -144.49911 9556 ft 170 kts 54°
2026-04-15 16:24 62.54193 -144.47822 9565 ft 171 kts 54°
2026-04-15 16:24 62.54885 -144.45736 9565 ft 170 kts 53°
2026-04-15 16:24 62.55577 -144.43650 9561 ft 171 kts 53°
2026-04-15 16:24 62.56271 -144.41563 9559 ft 171 kts 53°
2026-04-15 16:25 62.56964 -144.39477 9568 ft 171 kts 53°
2026-04-15 16:25 62.57657 -144.37393 9565 ft 170 kts 53°
2026-04-15 16:25 62.58351 -144.35303 9565 ft 170 kts 53°
2026-04-15 16:25 62.59045 -144.33222 9567 ft 170 kts 53°
2026-04-15 16:26 62.59740 -144.31138 9566 ft 170 kts 53°
2026-04-15 16:26 62.60434 -144.29057 9575 ft 170 kts 53°
2026-04-15 16:26 62.61128 -144.26976 9584 ft 170 kts 53°
2026-04-15 16:26 62.61819 -144.24901 9589 ft 170 kts 53°
2026-04-15 16:27 62.62277 -144.23526 9589 ft 170 kts 53°
2026-04-15 16:27 62.63147 -144.20671 9599 ft 169 kts 58°
2026-04-15 16:27 62.63552 -144.19222 9606 ft 169 kts 58°
2026-04-15 16:27 62.64164 -144.17036 9611 ft 169 kts 58°
2026-04-15 16:28 62.64776 -144.14849 9619 ft 169 kts 58°
2026-04-15 16:28 62.65387 -144.12665 9622 ft 169 kts 58°
2026-04-15 16:28 62.65998 -144.10476 9630 ft 169 kts 58°
2026-04-15 16:28 62.66609 -144.08290 9633 ft 169 kts 58°
2026-04-15 16:29 62.67192 -144.06066 9646 ft 169 kts 59°
2026-04-15 16:29 62.67791 -144.03865 9653 ft 169 kts 58°
2026-04-15 16:29 62.68406 -144.01689 9663 ft 169 kts 57°
2026-04-15 16:29 62.68958 -143.99434 9659 ft 169 kts 65°
2026-04-15 16:30 62.69408 -143.97070 9666 ft 169 kts 69°
2026-04-15 16:30 62.69822 -143.94669 9672 ft 169 kts 68°
2026-04-15 16:30 62.70583 -143.92784 9619 ft 169 kts 26°
2026-04-15 16:30 62.71608 -143.91546 9624 ft 169 kts 36°
2026-04-15 16:31 62.72275 -143.89445 9583 ft 173 kts 71°
2026-04-15 16:31 62.72574 -143.86927 9597 ft 171 kts 76°
2026-04-15 16:31 62.72855 -143.84412 9592 ft 170 kts 76°
2026-04-15 16:31 62.73067 -143.81914 9594 ft 170 kts 81°
2026-04-15 16:32 62.73266 -143.79343 9597 ft 170 kts 80°
2026-04-15 16:32 62.73496 -143.76820 9596 ft 170 kts 77°
2026-04-15 16:32 62.73759 -143.74347 9593 ft 170 kts 76°
2026-04-15 16:32 62.74036 -143.71840 9597 ft 170 kts 76°
2026-04-15 16:33 62.74319 -143.69332 9597 ft 170 kts 76°
2026-04-15 16:33 62.74607 -143.66832 9597 ft 170 kts 75°
2026-04-15 16:33 62.74897 -143.64336 9593 ft 170 kts 75°
2026-04-15 16:33 62.75184 -143.61837 9593 ft 170 kts 75°
2026-04-15 16:34 62.75471 -143.59342 9599 ft 170 kts 75°
2026-04-15 16:34 62.75760 -143.56842 9604 ft 170 kts 75°
2026-04-15 16:34 62.76046 -143.54341 9601 ft 170 kts 75°
2026-04-15 16:34 62.76333 -143.51838 9594 ft 169 kts 75°
2026-04-15 16:35 62.76621 -143.49354 9598 ft 168 kts 75°
2026-04-15 16:35 62.76906 -143.46876 9597 ft 168 kts 75°
2026-04-15 16:35 62.77191 -143.44395 9595 ft 168 kts 75°
2026-04-15 16:35 62.77476 -143.41913 9595 ft 169 kts 75°
2026-04-15 16:36 62.77763 -143.39415 9598 ft 169 kts 75°
2026-04-15 16:36 62.78049 -143.36925 9598 ft 170 kts 75°
2026-04-15 16:36 62.78335 -143.34424 9596 ft 169 kts 75°
2026-04-15 16:36 62.78622 -143.31938 9595 ft 169 kts 75°
2026-04-15 16:37 62.78908 -143.29457 9593 ft 169 kts 75°
2026-04-15 16:37 62.79195 -143.26968 9599 ft 169 kts 75°
2026-04-15 16:37 62.79480 -143.24472 9599 ft 169 kts 75°
2026-04-15 16:37 62.79764 -143.21978 9598 ft 169 kts 75°
2026-04-15 16:38 62.80050 -143.19484 9604 ft 170 kts 75°
2026-04-15 16:38 62.80337 -143.16982 9602 ft 170 kts 75°
2026-04-15 16:38 62.80625 -143.14476 9603 ft 170 kts 75°
2026-04-15 16:38 62.80911 -143.11970 9596 ft 169 kts 75°
2026-04-15 16:39 62.81199 -143.09485 9600 ft 169 kts 74°
2026-04-15 16:39 62.81485 -143.06993 9601 ft 168 kts 74°
2026-04-15 16:39 62.81767 -143.04514 9594 ft 168 kts 74°
2026-04-15 16:39 62.82026 -143.02026 9596 ft 169 kts 76°
2026-04-15 16:40 62.82267 -142.99506 9594 ft 170 kts 76°
2026-04-15 16:40 62.82503 -142.96969 9596 ft 170 kts 77°
2026-04-15 16:40 62.82735 -142.94440 9602 ft 169 kts 77°
2026-04-15 16:40 62.82966 -142.91914 9601 ft 170 kts 77°
2026-04-15 16:41 62.83197 -142.89379 9603 ft 170 kts 77°
2026-04-15 16:41 62.83424 -142.86847 9602 ft 170 kts 77°
2026-04-15 16:41 62.83650 -142.84315 9602 ft 169 kts 77°
2026-04-15 16:41 62.83875 -142.81789 9596 ft 169 kts 77°
2026-04-15 16:42 62.84097 -142.79301 9596 ft 169 kts 77°
2026-04-15 16:42 62.84321 -142.76777 9590 ft 169 kts 77°
2026-04-15 16:42 62.84543 -142.74257 9591 ft 168 kts 77°
2026-04-15 16:42 62.84765 -142.71737 9593 ft 169 kts 77°
2026-04-15 16:43 62.84987 -142.69211 9595 ft 169 kts 77°
2026-04-15 16:43 62.85207 -142.66681 9593 ft 169 kts 77°
2026-04-15 16:43 62.85427 -142.64154 9596 ft 169 kts 77°
2026-04-15 16:43 62.85646 -142.61625 9589 ft 169 kts 77°
2026-04-15 16:44 62.85865 -142.59098 9598 ft 169 kts 77°
2026-04-15 16:44 62.86083 -142.56573 9603 ft 169 kts 77°
2026-04-15 16:44 62.86301 -142.54049 9609 ft 169 kts 77°
2026-04-15 16:44 62.86517 -142.51526 9608 ft 169 kts 77°
2026-04-15 16:45 62.86733 -142.49001 9608 ft 169 kts 77°
2026-04-15 16:45 62.86949 -142.46472 9607 ft 169 kts 77°
2026-04-15 16:45 62.87163 -142.43947 9607 ft 169 kts 77°
2026-04-15 16:45 62.87376 -142.41423 9604 ft 168 kts 77°
2026-04-15 16:46 62.87587 -142.38895 9609 ft 169 kts 77°
2026-04-15 16:46 62.87798 -142.36372 9612 ft 168 kts 77°
2026-04-15 16:46 62.88013 -142.33850 9614 ft 168 kts 75°
2026-04-15 16:46 62.88453 -142.31510 9601 ft 166 kts 59°
2026-04-15 16:47 62.88999 -142.29281 9611 ft 166 kts 58°
2026-04-15 16:47 62.89541 -142.27051 9612 ft 166 kts 58°
2026-04-15 16:47 62.90082 -142.24825 9607 ft 165 kts 58°
2026-04-15 16:47 62.90623 -142.22601 9613 ft 165 kts 58°
2026-04-15 16:48 62.91164 -142.20377 9608 ft 165 kts 58°
2026-04-15 16:48 62.91705 -142.18150 9614 ft 165 kts 58°
2026-04-15 16:48 62.92244 -142.15924 9607 ft 165 kts 58°
2026-04-15 16:48 62.92784 -142.13699 9613 ft 165 kts 58°
2026-04-15 16:49 62.93323 -142.11474 9605 ft 165 kts 58°
2026-04-15 16:49 62.93863 -142.09249 9610 ft 165 kts 58°
2026-04-15 16:49 62.94401 -142.07020 9605 ft 165 kts 58°
2026-04-15 16:49 62.94928 -142.04780 9613 ft 165 kts 60°
2026-04-15 16:50 62.95430 -142.02511 9611 ft 165 kts 60°
2026-04-15 16:50 62.95932 -142.00242 9607 ft 165 kts 60°
2026-04-15 16:50 62.96396 -141.97931 9615 ft 165 kts 64°
2026-04-15 16:50 62.96837 -141.95597 9612 ft 165 kts 64°
2026-04-15 16:51 62.97279 -141.93262 9605 ft 165 kts 64°
2026-04-15 16:51 62.97721 -141.90929 9606 ft 166 kts 63°
2026-04-15 16:51 62.98156 -141.88621 9610 ft 165 kts 63°
2026-04-15 16:51 62.98602 -141.86256 9609 ft 165 kts 64°
2026-04-15 16:52 62.99041 -141.83919 9608 ft 165 kts 64°
2026-04-15 16:52 62.99480 -141.81586 9613 ft 165 kts 63°
2026-04-15 16:52 62.99921 -141.79251 9615 ft 165 kts 63°
2026-04-15 16:52 63.00419 -141.76997 9603 ft 163 kts 52°
2026-04-15 16:53 63.01123 -141.75112 9602 ft 161 kts 45°
2026-04-15 16:53 63.01855 -141.73238 9605 ft 161 kts 45°
2026-04-15 16:53 63.02590 -141.71374 9607 ft 161 kts 44°
2026-04-15 16:53 63.03326 -141.69526 9602 ft 160 kts 45°
2026-04-15 16:54 63.04053 -141.67667 9606 ft 160 kts 45°
2026-04-15 16:54 63.04776 -141.65809 9604 ft 160 kts 45°
2026-04-15 16:54 63.05503 -141.63954 9598 ft 160 kts 45°
2026-04-15 16:54 63.06232 -141.62098 9608 ft 160 kts 45°
2026-04-15 16:55 63.06965 -141.60234 9612 ft 161 kts 45°
2026-04-15 16:55 63.07698 -141.58371 9618 ft 161 kts 45°
2026-04-15 16:55 63.08435 -141.56497 9614 ft 162 kts 45°
2026-04-15 16:55 63.09167 -141.54629 9613 ft 160 kts 45°
2026-04-15 16:56 63.09893 -141.52780 9613 ft 159 kts 45°
2026-04-15 16:56 63.10615 -141.50936 9606 ft 159 kts 45°
2026-04-15 16:56 63.11337 -141.49087 9608 ft 159 kts 45°
2026-04-15 16:56 63.12063 -141.47236 9611 ft 159 kts 45°
2026-04-15 16:57 63.12790 -141.45384 9609 ft 160 kts 45°
2026-04-15 16:57 63.13516 -141.43529 9608 ft 160 kts 45°
2026-04-15 16:57 63.14241 -141.41672 9606 ft 160 kts 45°
2026-04-15 16:57 63.14967 -141.39812 9610 ft 160 kts 45°
2026-04-15 16:58 63.15695 -141.37948 9603 ft 160 kts 45°
2026-04-15 16:58 63.16420 -141.36092 9601 ft 159 kts 45°
2026-04-15 16:58 63.17143 -141.34240 9602 ft 158 kts 45°
2026-04-15 16:58 63.17863 -141.32398 9604 ft 158 kts 45°
2026-04-15 16:59 63.18582 -141.30551 9602 ft 158 kts 45°
2026-04-15 16:59 63.19301 -141.28706 9598 ft 158 kts 45°
2026-04-15 16:59 63.20007 -141.26887 9597 ft 158 kts 45°
2026-04-15 16:59 63.20728 -141.25034 9599 ft 159 kts 45°
2026-04-15 17:00 63.21453 -141.23173 9598 ft 160 kts 45°
2026-04-15 17:00 63.22177 -141.21311 9599 ft 159 kts 45°
2026-04-15 17:00 63.22896 -141.19460 9598 ft 158 kts 45°
2026-04-15 17:00 63.23610 -141.17620 9595 ft 157 kts 45°
2026-04-15 17:01 63.24323 -141.15782 9595 ft 157 kts 45°
2026-04-15 17:01 63.25041 -141.13938 9594 ft 158 kts 45°
2026-04-15 17:01 63.25757 -141.12090 9597 ft 158 kts 45°
2026-04-15 17:01 63.26475 -141.10239 9596 ft 159 kts 45°
2026-04-15 17:02 63.27197 -141.08378 9598 ft 159 kts 45°
2026-04-15 17:02 63.27919 -141.06513 9598 ft 159 kts 45°
2026-04-15 17:02 63.28637 -141.04652 9593 ft 158 kts 45°
2026-04-15 17:02 63.29354 -141.02799 9593 ft 158 kts 45°
2026-04-15 17:03 63.30072 -141.00943 9597 ft 159 kts 45°
2026-04-15 17:03 63.30796 -140.99081 9595 ft 159 kts 45°
2026-04-15 17:03 63.31518 -140.97218 9590 ft 159 kts 46°
2026-04-15 17:03 63.32236 -140.95357 9594 ft 158 kts 45°
2026-04-15 17:04 63.32954 -140.93496 9593 ft 158 kts 46°
2026-04-15 17:04 63.33670 -140.91634 9586 ft 158 kts 46°
2026-04-15 17:04 63.34386 -140.89777 9594 ft 158 kts 45°
2026-04-15 17:04 63.35102 -140.87926 9596 ft 157 kts 45°
2026-04-15 17:05 63.35815 -140.86076 9592 ft 157 kts 45°
2026-04-15 17:05 63.36528 -140.84228 9585 ft 157 kts 46°
2026-04-15 17:05 63.37239 -140.82379 9590 ft 157 kts 46°
2026-04-15 17:05 63.37954 -140.80528 9588 ft 158 kts 46°
2026-04-15 17:06 63.38667 -140.78664 9590 ft 158 kts 46°
2026-04-15 17:06 63.39384 -140.76794 9592 ft 159 kts 46°
2026-04-15 17:06 63.40108 -140.74915 9595 ft 160 kts 46°
2026-04-15 17:06 63.40831 -140.73028 9604 ft 161 kts 46°
2026-04-15 17:07 63.41557 -140.71133 9605 ft 160 kts 46°
2026-04-15 17:07 63.42278 -140.69247 9605 ft 159 kts 46°
2026-04-15 17:07 63.42987 -140.67402 9604 ft 158 kts 46°
2026-04-15 17:07 63.43710 -140.65510 9603 ft 157 kts 46°
2026-04-15 17:08 63.44412 -140.63683 9597 ft 157 kts 46°
2026-04-15 17:08 63.45128 -140.61816 9591 ft 159 kts 46°
2026-04-15 17:08 63.45846 -140.59939 9595 ft 159 kts 46°
2026-04-15 17:08 63.46574 -140.58029 9598 ft 159 kts 46°
2026-04-15 17:09 63.47285 -140.56166 9601 ft 160 kts 46°
2026-04-15 17:09 63.48007 -140.54272 9600 ft 160 kts 46°
2026-04-15 17:09 63.48731 -140.52375 9609 ft 161 kts 46°
2026-04-15 17:09 63.49454 -140.50476 9609 ft 160 kts 46°
2026-04-15 17:10 63.50177 -140.48584 9609 ft 160 kts 46°
2026-04-15 17:10 63.50902 -140.46687 9616 ft 161 kts 46°
2026-04-15 17:10 63.51629 -140.44781 9613 ft 161 kts 46°
2026-04-15 17:10 63.52353 -140.42875 9610 ft 161 kts 46°
2026-04-15 17:11 63.53078 -140.40971 9612 ft 161 kts 46°
2026-04-15 17:11 63.53806 -140.39059 9613 ft 162 kts 46°
2026-04-15 17:11 63.54534 -140.37139 9615 ft 162 kts 46°
2026-04-15 17:12 63.55996 -140.33289 9615 ft 162 kts 46°
2026-04-15 17:12 63.56729 -140.31369 9618 ft 161 kts 46°
2026-04-15 17:12 63.57453 -140.29458 9616 ft 161 kts 46°
2026-04-15 17:12 63.58177 -140.27551 9615 ft 160 kts 46°
2026-04-15 17:13 63.58899 -140.25648 9611 ft 160 kts 46°
2026-04-15 17:13 63.59618 -140.23746 9608 ft 159 kts 46°
2026-04-15 17:13 63.60338 -140.21846 9609 ft 160 kts 46°
2026-04-15 17:13 63.61061 -140.19937 9605 ft 160 kts 46°
2026-04-15 17:14 63.61779 -140.18029 9605 ft 160 kts 46°
2026-04-15 17:14 63.62503 -140.16125 9611 ft 161 kts 46°
2026-04-15 17:14 63.63222 -140.14202 9609 ft 160 kts 46°
2026-04-15 17:14 63.63946 -140.12290 9609 ft 161 kts 46°
2026-04-15 17:15 63.64674 -140.10373 9615 ft 161 kts 46°
2026-04-15 17:15 63.65399 -140.08437 9616 ft 162 kts 46°
2026-04-15 17:15 63.66118 -140.06537 9612 ft 161 kts 46°
2026-04-15 17:15 63.66840 -140.04611 9614 ft 161 kts 46°
2026-04-15 17:16 63.67569 -140.02680 9611 ft 162 kts 46°
2026-04-15 17:16 63.68297 -140.00757 9620 ft 161 kts 46°
2026-04-15 17:16 63.69026 -139.98830 9620 ft 162 kts 46°
2026-04-15 17:16 63.69752 -139.96888 9621 ft 162 kts 46°
2026-04-15 17:17 63.70481 -139.94945 9622 ft 163 kts 46°
2026-04-15 17:17 63.71213 -139.93000 9624 ft 163 kts 46°
2026-04-15 17:17 63.71944 -139.91046 9618 ft 163 kts 46°
2026-04-15 17:17 63.72440 -139.89725 9620 ft 164 kts 46°
2026-04-15 17:18 63.73175 -139.87771 9627 ft 163 kts 46°
2026-04-15 17:18 63.73907 -139.85827 9618 ft 162 kts 46°
2026-04-15 17:18 63.74637 -139.83880 9620 ft 163 kts 47°
2026-04-15 17:18 63.75365 -139.81925 9623 ft 163 kts 46°
2026-04-15 17:19 63.76099 -139.79967 9623 ft 164 kts 47°
2026-04-15 17:19 63.76836 -139.78002 9621 ft 164 kts 46°
2026-04-15 17:19 63.77575 -139.76035 9619 ft 164 kts 47°
2026-04-15 17:19 63.78310 -139.74064 9618 ft 163 kts 47°
2026-04-15 17:20 63.79040 -139.72107 9616 ft 163 kts 47°
2026-04-15 17:20 63.79771 -139.70152 9613 ft 162 kts 47°
2026-04-15 17:20 63.80501 -139.68199 9612 ft 163 kts 47°
2026-04-15 17:20 63.81230 -139.66243 9603 ft 163 kts 47°
2026-04-15 17:21 63.81950 -139.64309 9601 ft 163 kts 47°
2026-04-15 17:21 63.82681 -139.62347 9594 ft 163 kts 47°
2026-04-15 17:21 63.83411 -139.60386 9590 ft 163 kts 46°
2026-04-15 17:21 63.84141 -139.58421 9589 ft 163 kts 47°
2026-04-15 17:22 63.84867 -139.56409 9481 ft 169 kts 49°
2026-04-15 17:22 63.85615 -139.54223 9153 ft 183 kts 50°
2026-04-15 17:22 63.86416 -139.51871 8880 ft 190 kts 50°
2026-04-15 17:22 63.87209 -139.49543 8857 ft 182 kts 50°
2026-04-15 17:23 63.87957 -139.47303 8914 ft 175 kts 51°
2026-04-15 17:23 63.88698 -139.45102 8802 ft 177 kts 51°
2026-04-15 17:23 63.89544 -139.43125 8786 ft 171 kts 30°
2026-04-15 17:23 63.90514 -139.41721 8912 ft 164 kts 38°
2026-04-15 17:24 63.91199 -139.39674 9002 ft 161 kts 54°
2026-04-15 17:24 63.91840 -139.37634 9088 ft 157 kts 49°
2026-04-15 17:24 63.92525 -139.35727 9176 ft 155 kts 47°
2026-04-15 17:24 63.93205 -139.33839 9257 ft 153 kts 47°
2026-04-15 17:25 63.93885 -139.31967 9340 ft 153 kts 47°
2026-04-15 17:25 63.94568 -139.30116 9430 ft 152 kts 46°
2026-04-15 17:25 63.95250 -139.28276 9510 ft 152 kts 46°
2026-04-15 17:25 63.95933 -139.26427 9528 ft 155 kts 46°
2026-04-15 17:26 63.96632 -139.24534 9541 ft 157 kts 47°
2026-04-15 17:26 63.97341 -139.22610 9540 ft 160 kts 47°
2026-04-15 17:26 63.98056 -139.20661 9548 ft 161 kts 47°
2026-04-15 17:26 63.98790 -139.18727 9547 ft 162 kts 41°
2026-04-15 17:27 63.99802 -139.17894 9526 ft 157 kts 352°
2026-04-15 17:27 64.00819 -139.18680 9547 ft 155 kts 336°
2026-04-15 17:27 64.01838 -139.19655 9327 ft 160 kts 335°
2026-04-15 17:27 64.02741 -139.21105 9086 ft 161 kts 311°
2026-04-15 17:28 64.03321 -139.23300 8851 ft 166 kts 285°
2026-04-15 17:28 64.03141 -139.25894 8604 ft 172 kts 245°
2026-04-15 17:28 64.02533 -139.28238 8401 ft 171 kts 240°
2026-04-15 17:28 64.01957 -139.30600 8185 ft 169 kts 251°
2026-04-15 17:29 64.01894 -139.33229 7943 ft 167 kts 281°
2026-04-15 17:29 64.02166 -139.35798 7743 ft 166 kts 285°
2026-04-15 17:29 64.02448 -139.38359 7541 ft 167 kts 284°
2026-04-15 17:29 64.02692 -139.40952 7333 ft 167 kts 283°
2026-04-15 17:30 64.02900 -139.43557 7128 ft 167 kts 280°
2026-04-15 17:30 64.03088 -139.46177 6920 ft 168 kts 281°
2026-04-15 17:30 64.03233 -139.48820 6712 ft 169 kts 273°
2026-04-15 17:30 64.03192 -139.51503 6518 ft 171 kts 268°
2026-04-15 17:31 64.03121 -139.54199 6306 ft 170 kts 268°
2026-04-15 17:31 64.03050 -139.56886 6088 ft 170 kts 267°
2026-04-15 17:31 64.02765 -139.59496 5842 ft 173 kts 244°
2026-04-15 17:31 64.01979 -139.61578 5614 ft 177 kts 217°
2026-04-15 17:32 64.00905 -139.62953 5397 ft 177 kts 208°
2026-04-15 17:32 63.99808 -139.64204 5178 ft 176 kts 208°
2026-04-15 17:32 63.98712 -139.65458 4967 ft 176 kts 207°
2026-04-15 17:32 63.97610 -139.66688 4747 ft 176 kts 205°
2026-04-15 17:33 63.96399 -139.66980 4524 ft 179 kts 166°
2026-04-15 17:33 63.95476 -139.65339 4502 ft 168 kts 116°
2026-04-15 17:33 63.95476 -139.62861 4503 ft 157 kts 64°
2026-04-15 17:33 63.96007 -139.60709 4371 ft 159 kts 56°
2026-04-15 17:34 63.96617 -139.58565 4158 ft 164 kts 53°
2026-04-15 17:34 63.97305 -139.56471 3950 ft 166 kts 50°
2026-04-15 17:34 63.98011 -139.54392 3762 ft 167 kts 51°
2026-04-15 17:34 63.98679 -139.52254 3558 ft 168 kts 54°
2026-04-15 17:35 63.99312 -139.50073 3505 ft 161 kts 55°
2026-04-15 17:35 63.99908 -139.47981 3491 ft 154 kts 55°
2026-04-15 17:35 64.00360 -139.45802 3474 ft 152 kts 71°
2026-04-15 17:35 64.00566 -139.43469 3478 ft 150 kts 80°
2026-04-15 17:36 64.00644 -139.41114 3468 ft 149 kts 92°
2026-04-15 17:36 64.00501 -139.38771 3468 ft 149 kts 98°
2026-04-15 17:36 64.00330 -139.36396 3473 ft 152 kts 97°
2026-04-15 17:36 64.00288 -139.34057 3461 ft 149 kts 82°
2026-04-15 17:37 64.00541 -139.31772 3461 ft 146 kts 70°
2026-04-15 17:37 64.00875 -139.29564 3293 ft 152 kts 66°
2026-04-15 17:37 64.01380 -139.27432 3139 ft 154 kts 57°
2026-04-15 17:37 64.01966 -139.25400 3054 ft 152 kts 56°
2026-04-15 17:38 64.02548 -139.23351 2767 ft 144 kts 57°
2026-04-15 17:38 64.03016 -139.21683 2604 ft 116 kts 57°
2026-04-15 17:38 64.03364 -139.20047 2272 ft 115 kts 76°
2026-04-15 17:38 64.03318 -139.18326 2049 ft 97 kts 103°
2026-04-15 17:39 64.03266 -139.16920 1851 ft 85 kts 81°
2026-04-15 17:39 64.03440 -139.15634 1594 ft 86 kts 64°
2026-04-15 17:39 64.03736 -139.14433 1291 ft 89 kts 57°
2026-04-15 17:39 64.04071 -139.13469 1221 ft 61 kts 53°
2026-04-15 17:40 64.04280 -139.12876 1221 ft 32 kts 27°
2026-04-15 17:40 64.04408 -139.12540 1223 ft 27 kts 53°
2026-04-15 17:40 64.04521 -139.12349 1222 ft 11 kts 307°
2026-04-15 17:40 64.04541 -139.12391 1222 ft 5 kts 355°
2026-04-15 17:41 64.04582 -139.12405 1222 ft 0 kts 321°